Location: Gwatt
(46.7204°N, 7.6223°E)
Time: 01:12:04
(UTC+00:00)

Vanguard 3 - Pass Details

Date: 23 January 2021
Orbit: 508 x 3262 km, 33.4° (Epoch: 03 March)

Event Time Altitude Azimuth Distance (km) Brightness Sun altitude
Exits shadow 05:24:58 12° 241° (WSW) 3,326 9.8 -16.7°
Maximum altitude 05:33:02 42° 175° (S) 2,587 9.8 -15.4°
Drops below altitude 10° 05:46:54 10° 113° (ESE) 5,552 12.8 -13.1°
Sets 05:52:17 0° 108° (ESE) 6,880 14.0 -12.2°
